Marion Regional, IL

2:24 AM CDT on October 20, 2017 (GMT -0500)
Williamson County Regional

Weather History for KMWA - October, 2012

Change the Weather History Date:

Tuesday, October 2, 2012

  Actual Average Record
Temperature  
Mean Temperature 56 °F -  
Max Temperature 60 °F 74 °F 89 °F (1971)
Min Temperature 53 °F 48 °F 31 °F (1985)
Degree Days  
Heating Degree Days 8    
Growing Degree Days 6 (Base 50)    
Moisture  
Dew Point 53 °F    
Average Humidity 90    
Maximum Humidity 100    
Minimum Humidity 72    
Precipitation  
Precipitation 0.00 in - - ()
Sea Level Pressure  
Sea Level Pressure 29.82 in    
Wind  
Wind Speed 5 mph (NW)    
Max Wind Speed 12 mph    
Max Gust Speed -    
Visibility 9 miles    
Events      
Averages and records for this station are not official NWS values.
T = Trace of Precipitation, MM = Missing Value Source: NWS Daily Summary

Daily Weather History Graph

Daily Weather History Graph

Search for Another Location

Airport or City:

Trip Planner

Search our weather history database for the weather conditions in past years. The results will help you decide how hot, cold, wet, or windy it might be!

Date:

Astronomy

Oct. 02, 2012 Rise Set
Actual Time 6:52 AM CDT 6:36 PM CDT
Civil Twilight 6:26 AM CDT 7:02 PM CDT
Nautical Twilight 5:56 AM CDT 7:33 PM CDT
Astronomical Twilight 5:25 AM CDT 8:03 PM CDT
Moon 7:53 PM CDT (10/2) 9:16 AM CDT (10/2)
Length of Visible Light 12h 36m
Length of Day
11h 43m
Waning Gibbous, 94% of the Moon is Illuminated
Oct 2
Waning Gibbous
Oct 8
Last Quarter
Oct 15
New
Oct 21
First Quarter
Oct 29
Full

Hourly Weather History & Observations

Time (CDT) Temp. Dew Point Humidity Pressure Visibility Wind Dir Wind Speed Gust Speed Precip Events Conditions
12:15 AM 55.4 °F 53.6 °F 94% 29.74 in 10.0 mi NW 5.8 mph - N/A   Overcast
12:35 AM 55.4 °F 53.6 °F 94% 29.74 in 10.0 mi NW 4.6 mph - N/A   Overcast
12:55 AM 55.4 °F 53.6 °F 94% 29.74 in 10.0 mi WNW 4.6 mph - N/A   Overcast
1:15 AM 55.4 °F 53.6 °F 94% 29.74 in 10.0 mi NW 4.6 mph - N/A   Overcast
1:35 AM 55.4 °F 53.6 °F 94% 29.75 in 10.0 mi NW 4.6 mph - N/A   Overcast
1:55 AM 55.4 °F 53.6 °F 94% 29.74 in 10.0 mi NW 5.8 mph - N/A   Overcast
2:15 AM 55.4 °F 53.6 °F 94% 29.73 in 10.0 mi NW 4.6 mph - N/A   Overcast
2:35 AM 55.4 °F 53.6 °F 94% 29.73 in 10.0 mi NNW 4.6 mph - N/A   Overcast
2:55 AM 55.4 °F 51.8 °F 88% 29.73 in 10.0 mi NW 4.6 mph - N/A   Overcast
3:15 AM 55.4 °F 51.8 °F 88% 29.73 in 10.0 mi NW 3.5 mph - N/A   Overcast
3:35 AM 55.4 °F 51.8 °F 88% 29.73 in 10.0 mi NW 5.8 mph - N/A   Overcast
3:55 AM 55.4 °F 51.8 °F 88% 29.73 in 10.0 mi NW 5.8 mph - N/A   Mostly Cloudy
4:15 AM 55.4 °F 51.8 °F 88% 29.74 in 10.0 mi NW 6.9 mph - N/A   Scattered Clouds
4:35 AM 53.6 °F 51.8 °F 94% 29.74 in 10.0 mi NW 5.8 mph - N/A   Clear
4:55 AM 53.6 °F 51.8 °F 94% 29.75 in 10.0 mi NW 4.6 mph - N/A   Scattered Clouds
5:15 AM 53.6 °F 51.8 °F 94% 29.75 in 10.0 mi NW 4.6 mph - N/A   Scattered Clouds
5:35 AM 53.6 °F 50.0 °F 88% 29.75 in 10.0 mi NW 4.6 mph - N/A   Mostly Cloudy
5:55 AM 55.4 °F 50.0 °F 82% 29.77 in 10.0 mi NNW 3.5 mph - N/A   Overcast
6:15 AM 55.4 °F 50.0 °F 82% 29.77 in 10.0 mi NNW 4.6 mph - N/A   Overcast
6:35 AM 55.4 °F 50.0 °F 82% 29.77 in 10.0 mi NW 5.8 mph - N/A   Overcast
6:52 AM 55.4 °F 50.0 °F 82% 29.77 in 20.0 mi WNW 8.1 mph - N/A   Mostly Cloudy
7:53 AM 55.4 °F 51.8 °F 88% 29.78 in 20.0 mi NW 8.1 mph - N/A   Mostly Cloudy
8:51 AM 55.4 °F 51.8 °F 88% 29.79 in 20.0 mi NW 8.1 mph - N/A   Mostly Cloudy
9:54 AM 57.2 °F 51.8 °F 82% 29.81 in 20.0 mi NW 9.2 mph - N/A   Overcast
10:58 AM 60.8 °F 51.8 °F 72% 29.82 in 20.0 mi NNW 9.2 mph - N/A   Overcast
11:58 AM 60.8 °F 51.8 °F 72% 29.81 in 10.0 mi North 5.8 mph - N/A   Overcast
12:55 PM 60.8 °F 51.8 °F 72% 29.82 in 10.0 mi NNE 11.5 mph - N/A   Overcast
1:55 PM 59.0 °F 53.6 °F 82% 29.83 in 7.0 mi North 9.2 mph - N/A   Overcast
2:55 PM 59.0 °F 53.6 °F 82% 29.83 in 7.0 mi WNW 11.5 mph - N/A   Overcast
3:55 PM 57.2 °F 55.4 °F 94% 29.85 in 3.0 mi NNW 11.5 mph - N/A   Drizzle
4:55 PM 57.2 °F 55.4 °F 94% 29.87 in 5.0 mi WNW 5.8 mph - N/A   Drizzle
5:55 PM 57.2 °F 57.2 °F 100% 29.88 in 7.0 mi WNW 5.8 mph - N/A   Overcast
6:35 PM 57.2 °F 55.4 °F 94% 29.89 in 7.0 mi Calm Calm - N/A   Overcast
6:55 PM 57.2 °F 55.4 °F 94% 29.89 in 7.0 mi Calm Calm - N/A   Overcast
7:15 PM 57.2 °F 55.4 °F 94% 29.89 in 7.0 mi Calm Calm - N/A   Overcast
7:35 PM 57.2 °F 55.4 °F 94% 29.89 in 5.0 mi Calm Calm - N/A   Overcast
7:55 PM 57.2 °F 55.4 °F 94% 29.90 in 4.0 mi Calm Calm - N/A   Overcast
8:15 PM 57.2 °F 55.4 °F 94% 29.90 in 5.0 mi Calm Calm - N/A   Overcast
8:35 PM 57.2 °F 55.4 °F 94% 29.91 in 5.0 mi SSW 3.5 mph - N/A   Overcast
8:55 PM 57.2 °F 55.4 °F 94% 29.91 in 5.0 mi South 3.5 mph - N/A   Overcast
9:15 PM 57.2 °F 55.4 °F 94% 29.92 in 4.0 mi Calm Calm - N/A   Overcast
9:35 PM 57.2 °F 55.4 °F 94% 29.92 in 4.0 mi Calm Calm - N/A   Overcast
9:55 PM 57.2 °F 55.4 °F 94% 29.93 in 4.0 mi Calm Calm - N/A   Overcast
10:15 PM 57.2 °F 55.4 °F 94% 29.93 in 5.0 mi SW 4.6 mph - N/A   Overcast
10:35 PM 57.2 °F 55.4 °F 94% 29.93 in 5.0 mi Calm Calm - N/A   Overcast
10:55 PM 57.2 °F 55.4 °F 94% 29.93 in 5.0 mi Calm Calm - N/A   Overcast
11:15 PM 57.2 °F 55.4 °F 94% 29.93 in 5.0 mi South 3.5 mph - N/A   Overcast
11:35 PM 57.2 °F 55.4 °F 94% 29.93 in 7.0 mi South 3.5 mph - N/A   Overcast
11:55 PM 57.2 °F 55.4 °F 94% 29.93 in 10.0 mi South 4.6 mph - N/A   Overcast